Weather History for Wichita, KS

Change the Weather History Date:

Thursday, February 7, 2013

  Actual Average Record
Temperature  
Mean Temperature 47 °F 35 °F  
Max Temperature 57 °F 46 °F 70 °F (2009)
Min Temperature 36 °F 24 °F -13 °F (1895)
Degree Days  
Heating Degree Days 18 30  
Month to date heating degree days 165 214  
Since 1 July heating degree days 2620 3074  
Cooling Degree Days 0 0  
Month to date cooling degree days 0 0  
Year to date cooling degree days 0 0  
Moisture  
Dew Point 43 °F    
Average Humidity 72    
Maximum Humidity 100    
Minimum Humidity 43    
Precipitation  
Precipitation 0.21 in 0.04 in 0.63 in (1935)
Month to date precipitation 0.21 0.24  
Year to date precipitation 0.78 1.07  
Snow  
Snow 0.00 in 0.20 in 9.20 in (1980)
Month to date snowfall 0.0 1.0  
Since 1 July snowfall 3.3 10.2  
Snow Depth 0.00 in    
Sea Level Pressure  
Sea Level Pressure 29.98 in    
Wind  
Wind Speed 13 mph (North)    
Max Wind Speed 26 mph    
Max Gust Speed 31 mph    
Visibility 7 miles    
Events Rain    
T = Trace of Precipitation, MM = Missing Value Source: NWS Daily Summary

Daily Weather History Graph

Daily Weather History Graph

Search for Another Location

Airport:

Trip Planner

Search our weather history database for the weather conditions in past years. The results will help you decide how hot, cold, wet, or windy it might be!

Date:

Astronomy

Feb. 07, 2013 Rise Set
Actual Time 7:27 AM CST 6:00 PM CST
Civil Twilight 7:00 AM CST 6:27 PM CST
Nautical Twilight 6:29 AM CST 6:58 PM CST
Astronomical Twilight 5:58 AM CST 7:29 PM CST
Moon 5:06 AM CST (2/7) 3:28 PM CST (2/7)
Length of Visible Light 11h 27m
Length of Day
10h 32m
Waning Crescent, 9% of the Moon is Illuminated
Feb 7
Waning Crescent
Feb 10
New
Feb 17
First Quarter
Feb 25
Full
Mar 4
Last Quarter

Hourly Weather History & Observations

Time (CST) Temp. Windchill Dew Point Humidity Pressure Visibility Wind Dir Wind Speed Gust Speed Precip Events Conditions
12:42 AM 53.6 °F - 50.0 °F 88% 29.85 in 8.0 mi South 11.5 mph - N/A   Overcast
12:53 AM 54.0 °F - 50.0 °F 86% 29.85 in 8.0 mi South 17.3 mph 20.7 mph N/A   Overcast
1:21 AM 51.8 °F - 50.0 °F 94% 29.85 in 4.0 mi South 11.5 mph - 0.00 in   Light Drizzle
1:39 AM 51.8 °F - 51.8 °F 100% 29.84 in 2.0 mi SSE 10.4 mph - 0.00 in   Light Drizzle
1:53 AM 52.0 °F - 51.1 °F 97% 29.84 in 1.8 mi South 12.7 mph - 0.00 in   Light Drizzle
2:53 AM 52.0 °F - 51.1 °F 97% 29.83 in 1.5 mi South 9.2 mph - 0.01 in   Light Drizzle
3:53 AM 52.0 °F - 52.0 °F 100% 29.83 in 1.5 mi SE 3.5 mph - 0.00 in   Light Drizzle
4:53 AM 52.0 °F - 51.1 °F 97% 29.84 in 1.0 mi ESE 4.6 mph - 0.05 in Rain Light Rain
5:41 AM 51.8 °F - 51.8 °F 100% 29.84 in 3.0 mi ESE 3.5 mph - 0.01 in   Overcast
5:53 AM 51.1 °F - 51.1 °F 100% 29.84 in 4.0 mi ESE 5.8 mph - 0.01 in   Overcast
6:50 AM 51.8 °F - 51.8 °F 100% 29.88 in 2.5 mi NW 10.4 mph - 0.03 in Rain Rain
6:53 AM 52.0 °F - 51.1 °F 97% 29.87 in 4.0 mi NNW 15.0 mph - 0.04 in Rain Rain
7:07 AM 51.8 °F - 51.8 °F 100% 29.88 in 7.0 mi North 12.7 mph - 0.01 in Rain Light Rain
7:53 AM 51.1 °F - 50.0 °F 96% 29.91 in 9.0 mi North 16.1 mph 23.0 mph 0.05 in Rain Light Rain
8:53 AM 51.1 °F - 48.9 °F 92% 29.94 in 10.0 mi NNE 11.5 mph - 0.05 in   Mostly Cloudy
9:53 AM 51.1 °F - 48.9 °F 92% 29.96 in 10.0 mi North 18.4 mph - 0.00 in   Overcast
10:01 AM 50.0 °F - 48.2 °F 94% 29.97 in 9.0 mi North 19.6 mph 25.3 mph N/A   Overcast
10:22 AM 48.2 °F - 46.4 °F 93% 29.99 in 5.0 mi NNW 18.4 mph 27.6 mph N/A   Overcast
10:53 AM 45.0 °F 36.9 °F 43.0 °F 93% 30.01 in 6.0 mi North 20.7 mph 27.6 mph 0.00 in Rain Light Rain
11:00 AM 44.6 °F 36.9 °F 42.8 °F 93% 30.02 in 8.0 mi NNW 18.4 mph 27.6 mph 0.00 in   Overcast
11:12 AM 44.6 °F 37.4 °F 42.8 °F 93% 30.02 in 10.0 mi North 16.1 mph 25.3 mph 0.00 in   Overcast
11:19 AM 44.6 °F 37.2 °F 42.8 °F 93% 30.01 in 10.0 mi North 17.3 mph 25.3 mph 0.00 in   Overcast
11:53 AM 45.0 °F 36.9 °F 43.0 °F 93% 30.00 in 10.0 mi North 20.7 mph - 0.00 in   Mostly Cloudy
12:53 PM 52.0 °F - 39.0 °F 61% 30.01 in 10.0 mi North 18.4 mph 31.1 mph N/A   Mostly Cloudy
1:53 PM 51.1 °F - 37.9 °F 61% 30.02 in 10.0 mi North 16.1 mph - N/A   Mostly Cloudy
2:53 PM 53.1 °F - 37.0 °F 55% 30.02 in 10.0 mi North 20.7 mph 27.6 mph N/A   Mostly Cloudy
3:53 PM 55.0 °F - 34.0 °F 45% 30.03 in 10.0 mi North 17.3 mph 28.8 mph N/A   Scattered Clouds
4:53 PM 53.1 °F - 32.0 °F 45% 30.06 in 10.0 mi North 17.3 mph 28.8 mph N/A   Scattered Clouds
5:53 PM 51.1 °F - 32.0 °F 48% 30.09 in 10.0 mi North 12.7 mph - N/A   Scattered Clouds
6:53 PM 46.9 °F - 32.0 °F 56% 30.11 in 10.0 mi North 6.9 mph - N/A   Partly Cloudy
7:53 PM 46.0 °F 40.6 °F 30.9 °F 56% 30.14 in 10.0 mi North 11.5 mph - N/A   Clear
8:53 PM 44.1 °F 38.6 °F 30.0 °F 58% 30.17 in 10.0 mi North 10.4 mph - N/A   Clear
9:53 PM 44.1 °F 37.7 °F 30.0 °F 58% 30.18 in 10.0 mi North 12.7 mph - N/A   Partly Cloudy
10:53 PM 39.9 °F 35.1 °F 30.0 °F 68% 30.21 in 10.0 mi North 6.9 mph - N/A   Clear
11:53 PM 37.0 °F 31.6 °F 30.0 °F 76% 30.23 in 10.0 mi NNE 6.9 mph - N/A   Clear